Regional Weather Roundup
Issued by NWS Upton, NY

Current Version | Previous Version | Text Only | Print | Product List | Glossary On
Versions: 1 2 3 4 5 6 7 8 9 10 11 12 13 14 15 16 17 18 19 20 21 22 23 24 25 26 27 28
000 ASUS41 KOKX 250405 RWROKX REGIONAL WEATHER ROUNDUP NATIONAL WEATHER SERVICE NEW YORK NY 1200 AM EDT MON JUL 25 2016 NOTE: "FAIR" INDICATES FEW OR NO CLOUDS BELOW 12,000 FEET WITH NO SIGNIFICANT WEATHER AND/OR OBSTRUCTIONS TO VISIBILITY. NYZ071-072-176-178-NJZ106-104-250500- NEW YORK CITY METRO AREA CITY SKY/WX TMP DP RH WIND PRES REMARKS Central Park PTCLDY 81 67 62 MISG 29.99F LaGuardia APRT MOCLDY 85 68 56 SW6 29.96S Kennedy INTL MOCLDY 75 70 84 S6 29.98F Newark/Liberty MOCLDY 81 67 62 S9 29.96F BRNX BOT. GARD N/A 79 66 65 E1 29.97F Wall St Helipt PTCLDY 81 70 69 SW3 29.97F Teterboro PTCLDY 82 66 58 S8 29.95S $$ NYZ177-179-078>081-250500- LONG ISLAND NEW YORK CITY SKY/WX TMP DP RH WIND PRES REMARKS FARMINGDALE PTCLDY 76 69 79 SW5 29.98F ISLIP MOCLDY 75 71 87 S6 29.98F SHIRLEY CLEAR 75 70 84 S5 29.99F RIVERHEAD NOT AVBL WESTHAMPTON CLEAR 74 67 78 S3 30.01F SOUTHAMPTON N/A 73 70 88 SW3 29.95F BRIDGEHAMPTON N/A 72 66 83 CALM 29.98F EAST HAMPTON FAIR 74 65 74 SW6 29.99S MONTAUK POINT N/A 69 67 93 CALM 30.00F $$ NYZ052-065-067-250500- HUDSON VALLEY CITY SKY/WX TMP DP RH WIND PRES REMARKS WHITE PLAINS PTCLDY 73 67 81 CALM 29.98F NEWBURGH CLEAR 77 68 73 VRB5 29.99S MONTGOMERY MOCLDY 70 66 87 CALM 29.97S POUGHKEEPSIE CLOUDY 76 65 68 CALM 29.95F ALBANY CLOUDY 73 60 63 CALM 29.97F $$ NJZ001-105-106-008-010-013-015-019>022-104-250500- NEW JERSEY CITY SKY/WX TMP DP RH WIND PRES REMARKS NEWARK/LIBERTY MOCLDY 81 67 62 S9 29.96F TETERBORO PTCLDY 82 66 58 S8 29.95S CALDWELL CLOUDY 81 67 62 CALM 29.96F MORRISTOWN CLOUDY 75 66 73 CALM 29.97S SOMERVILLE CLOUDY 75 68 78 CALM 29.95F SUSSEX PTCLDY 71 68 90 CALM 29.98S ANDOVER N/A 71 67 87 CALM 29.99S TRENTON PTCLDY 80 63 55 SW5 29.97F MILLVILLE PTCLDY 77 72 84 CALM 29.99F ATLANTIC CITY MOCLDY 78 73 84 S7 29.99F WRIGHTSTOWN CLEAR 74 68 79 SW6 29.95F TOMS RIVER PTCLDY 75 69 81 S6 29.98F BELMAR PTCLDY 77 65 66 S6 29.99F $$ PAZ047>061-062-071-250500- EASTERN PENNSYLVANIA CITY SKY/WX TMP DP RH WIND PRES REMARKS PHILADELPHIA CLOUDY 82 63 52 SW6 29.98F ALLENTOWN CLOUDY 83 65 54 SW7 29.98S SCRANTON PTCLDY 81 65 58 SW8 29.99S $$ CTZ002-004>006-009-010-012-RIZ004-006-007-MAZ004-011-015-250500- SOUTHERN NEW ENGLAND IN CT CITY SKY/WX TMP DP RH WIND PRES REMARKS BRADLEY INTL CLOUDY 75 59 57 CALM 29.98R HARTFORD CLOUDY 79 66 64 S3 29.98R DANBURY CLOUDY 72 65 78 CALM 30.00S WTRBRY/OXFORD N/A 70 61 73 CALM 30.01S BRIDGEPORT PTCLDY 77 70 79 S6 29.98S MERIDEN MOCLDY 73 65 75 CALM 29.98F NEW HAVEN CLOUDY 72 67 84 CALM 29.99S CHESTER FAIR 73 68 83 VRB6 30.00S GROTON PTCLDY 75 67 76 W5 29.98F WILLIMANTIC NOT AVBL IN RI CITY SKY/WX TMP DP RH WIND PRES REMARKS PROVIDENCE MOCLDY 75 64 68 W9 29.98S BLOCK ISLAND CLEAR 70 67 90 W9 30.00S WESTERLY PTCLDY 73 65 75 W3 29.99F IN MA CITY SKY/WX TMP DP RH WIND PRES REMARKS BOSTON CLOUDY 69 64 84 SE3 29.97S WORCESTER PTCLDY 74 47 38 E3 30.02S WESTFIELD CLOUDY 71 59 65 S3 29.99R PROVINCETOWN CLEAR 68 66 93 S3 29.97F NANTUCKET CLOUDY 69 67 93 SW8 29.99S $$ ANZ330-335-338-340-345-350-353-355-250500- COASTAL MARINE OBSERVATIONS STATION/POSITION TIME SKY/WX TEMP WIND PRES VSBY WAVE AIR SEA DIR/SP/G HT/PER (UTC) (F) (DEG/KT/KT) (MB) (MI) (FT/S) NY HARB ENTRANCE 0250 76 73 200/ 14/ 16 1014.8 3/ 4 20S FIRE ISLAND 0250 76 73 210/ 10/ 12 1015.0 3/ 6 GREAT SOUTH BAY 0300 76 81 180/ 4/ 6 N/A 23 SSW MONTAUK P 0250 75 72 230/ 10/ 12 1016.0 2/ 6 15 E BARNEGAT LI 0322 76 N/A 2/ 6 HUDSON CANYON 0250 77 78 1016.0 2/ 6 KINGS POINT 0300 74 1014.7 EXECUTION ROCKS 0300 77 180/ 6/ 8 N/A CENTRAL LI SOUND 0300 76 74 210/ 12/ 16 N/A 2/ 3 EASTERN LI SOUND 0300 72 68 270/ 4/ 6 N/A ROBBINS REEF 0300 1014.3 $$ >>>>>>>>>>>>>>>>>>>>>>>>>>>> KEY <<<<<<<<<<<<<<<<<<<<<<<<<<< > < > SKY/WX - SKY CONDITION/PRESENT WEATHER < > TMP - TEMPERATURE IN FAHRENHEIT < > DP - DEWPOINT IN FAHRENHEIT < > RH - RELATIVE HUMIDITY IN PERCENT < > WIND - DIRECTION AND SPEED IN MPH < > PRES - MEAN SEA LEVEL PRESSURE IN INCHES OF HG < > WCI - WIND CHILL INDEX < > VSB - VISIBILITY IN MILES < > HX - HEAT INDEX < > TC - TEMPERATURE IN CELSIUS < > VRB - VARIABLE WIND DIRECTION < > < >>>>>>>>>>>>>>>>>>>>>>>>>>>> KEY <<<<<<<<<<<<<<<<<<<<<<<<<<<

USA.gov is the U.S. government's official web portal to all federal, state and local government web resources and services.